This is the latest recevied weather packets stored in our database for station/object W6MAF. If no packets are shown the sender has not sent any weather packets the latest 10 day(s).
| Time | Temp. | Humidity | Pressure | Rain* | Wind** | Luminosity | Snow |
|---|---|---|---|---|---|---|---|
| 1788034398 | 31.11° C | 9% | - | 0 mm | 6.71 m/s, 183° | - | - |
| 1788034101 | 31.11° C | 10% | - | 0 mm | 5.81 m/s, 177° | - | - |
| 1788033803 | 31.11° C | 10% | - | 0 mm | 8.49 m/s, 162° | - | - |
| 1788033208 | 31.11° C | 10% | - | 0 mm | 5.36 m/s, 205° | - | - |
| 1788032910 | 31.11° C | 10% | - | 0 mm | 8.49 m/s, 225° | - | - |
| 1788032609 | 31.11° C | 10% | - | 0 mm | 7.15 m/s, 188° | - | - |
| 1788032311 | 30.56° C | 10% | - | 0 mm | 5.36 m/s, 193° | - | - |
| 1788032013 | 31.11° C | 10% | - | 0 mm | 4.92 m/s, 155° | - | - |
| 1788031716 | 30.56° C | 11% | - | 0 mm | 5.36 m/s, 186° | - | - |
| 1788031418 | 30.56° C | 11% | - | 0 mm | 6.71 m/s, 187° | - | - |
| 1788031120 | 30.56° C | 11% | - | 0 mm | 7.15 m/s, 188° | - | - |
| 1788030819 | 30.56° C | 11% | - | 0 mm | 6.71 m/s, 188° | - | - |
| 1788030521 | 31.11° C | 10% | - | 0 mm | 7.15 m/s, 188° | - | - |
| 1788030224 | 31.67° C | 9% | - | 0 mm | 6.71 m/s, 173° | - | - |
| 1788029926 | 32.22° C | 9% | - | 0 mm | 7.6 m/s, 200° | - | - |
| 1788029628 | 31.67° C | 9% | - | 0 mm | 6.26 m/s, 200° | - | - |
| 1788029330 | 31.67° C | 9% | - | 0 mm | 5.81 m/s, 212° | - | - |
| 1788029029 | 31.11° C | 10% | - | 0 mm | 5.36 m/s, 252° | - | - |
| 1788028732 | 31.11° C | 9% | - | 0 mm | 4.92 m/s, 212° | - | - |
| 1788028434 | 31.11° C | 10% | - | 0 mm | 4.47 m/s, 229° | - | - |
| 1788028137 | 30.56° C | 10% | - | 0 mm | 5.36 m/s, 238° | - | - |
| 1788027839 | 30.56° C | 11% | - | 0 mm | 4.47 m/s, 224° | - | - |
| 1788027541 | 30° C | 11% | - | 0 mm | 4.47 m/s, 221° | - | - |
| 1788027240 | 30° C | 11% | - | 0 mm | 5.81 m/s, 193° | - | - |
| 1788026942 | 30° C | 11% | - | 0 mm | 4.47 m/s, 207° | - | - |
* Rain latest hour (hover to see other rain measurements)
** Current wind speed in m/s (hover to see current wind gust speed)